www.pogodaiklimat.ru

Погода и климат >> Архив погоды >> Мексика >> Loreto


ПОГОДА в Loreto

  • Прогноз погоды в Loreto
  • Монитор погоды в Loreto
  • Климат города

АРХИВ ПОГОДЫ в Loreto

Время (UTC), дата Ветер
(напр.,м/с)
 
Видим.   Явления Облачность Т
(С)
Тd
(С)
f
(%)
Тe
(С)
Тes
(С)
Комфортность P
(гПа)
Po
(гПа)
Тmin
(С)
Tmax
(С)
R
(мм)
R24
(мм)
S
(см)
00 15.02 В 2 20 км 3/0
[As trans]
+24.8 +14.1 51 +27 +28 жарко 1015.9 1015.1 +16.5 +24.8
03 15.02 штиль 0 20 км 3/0
[As trans]
+19.8 +14.5 71 +22 +22 комфорт 1017.4 1016.6
12 15.02 штиль 0 20 км 4/0
[As trans]
+17.5 +13.0 75 +18 +18 1016.9 1016.1 +16.0 +24.8
15 15.02 штиль 0 20 км 9/0
[Ac trans]
+17.9 +12.0 68 +18 +19 1017.3 1016.5
18 15.02 ЮВ 1 20 км 6/1 1140 м
[Sc Ac trans Cs]
+24.7 +14.9 54 +27 +36 жарко 1018.3 1017.5 +16.0 +25.5
21 15.02 СВ 2 20 км 6/1 1140 м
[Sc As trans Cs]
+26.1 +15.7 53 +29 +37 жарко 1016.1 1015.3
00 16.02 В 1 20 км 6/3 1000 м
[Sc As trans Cs]
+23.4 +16.4 65 +28 +29 душно 1015.1 1014.3 +16.0 +28.5
03 16.02 штиль 0 20 км 6/3
[Sc As trans Cs]
+20.4 +15.7 74 +23 +23 комфорт 1015.7 1015.0
12 16.02 С 1 20 км 4/0
[As trans]
+19.5 +13.8 70 +22 +22 комфорт 1017.3 1016.5 +18.0 +28.5
15 16.02 С 1 20 км 9/3 1500 м
[Sc diur, vesp As trans Cs]
+19.5 +13.8 70 +22 +23 комфорт 1017.6 1016.8
18 16.02 СВ 2 20 км 9/4 1500 м
[Sc diur, vesp As trans]
+22.7 +15.4 63 +27 +30 душно 1018.5 1017.7 +18.0 +23.1
21 16.02 С 3 20 км 8/0
[Ac trans]
+24.0 +16.4 62 +27 +32 жарко 1016.1 1015.3
00 17.02 С 4 10 км 4/0
[Ac trans]
+22.8 +16.1 66 +27 +28 душно 1015.9 1015.1 +18.0 +25.0
03 17.02 С 4 20 км 6/0
[Ac trans]
+20.5 +16.3 77 +24 +24 комфорт 1017.2 1016.4
06 17.02 штиль 0 20 км 4/0
[Ac trans]
+19.1 +15.5 80 +20 +20 1016.6 1015.8 +18.0 +25.0
12 17.02 С 2 20 км 5/0
[Ac trans]
+18.5 +14.5 78 +20 +20 1016.8 1016.0 +17.5 +25.0
15 17.02 С 1 20 км 9/0
[As trans Cs]
+18.8 +14.6 77 +21 +22 комфорт 1017.9 1017.1
18 17.02 СВ 2 20 км 9/1 1200 м
[Cu hum Ac trans]
+21.9 +15.3 66 +25 +30 комфорт 1018.5 1017.7 +17.0 +22.5
21 17.02 С 2 20 км 9/1 1200 м
[Sc diur, vesp Ac trans]
+22.2 +14.3 61 +25 +30 комфорт 1017.0 1016.2
00 18.02 СВ 3 20 км 10/0
[As trans Cs]
+22.5 +15.5 65 +26 +27 жарко 1016.1 1015.3 +17.0 +23.7
03 18.02 ЮЗ 1 20 км 9/0
[As trans Cs]
+20.6 +16.3 76 +25 +25 комфорт 1016.5 1015.7
06 18.02 штиль 0 20 км 5/0
[As trans]
+18.1 +15.7 86 +18 +18 1016.2 1015.4 +17.0 +23.7
12 18.02 ЮЗ 1 20 км 4/0
[As trans]
+16.7 +12.5 76 +18 +18 1015.3 1014.5 +15.6 +23.7
15 18.02 штиль 0 20 км 8/1 1500 м
[Sc diur, vesp As trans Cs]
+17.7 +14.1 79 +18 +19 1016.2 1015.4
18 18.02 ЮВ 1 20 км 10/3 1500 м
[Sc diur, vesp As trans Cs]
+21.6 +13.2 59 +24 +29 комфорт 1016.7 1015.9 +15.6 +22.0
21 18.02 Ю 1 20 км 10/5 1200 м
[Sc diur, vesp Ac lent]
+22.3 +13.3 57 +25 +27 комфорт 1015.0 1014.2
00 19.02 ЮЗ 3 20 км морось 10/4 1000 м
[Sc diur, vesp As trans]
+22.3 +16.6 70 +27 +27 душно 1013.7 1012.9 0.0
03 19.02 Ю 1 20 км морось 10/4 1200 м
[Sc diur, vesp As trans]
+20.7 +16.9 79 +25 +25 комфорт 1013.5 1012.7 0.0
06 19.02 ЮЗ 4 20 км 8/6 1300 м
[Sc diur, vesp As trans]
+22.5 +16.5 69 +27 +27 душно 1013.9 1013.1 +15.6 +23.5 0.0
09 19.02 ЮЗ 2 20 км {дождь} 10/6 1050 м
[Sc diur, vesp As op]
+20.5 +14.6 69 +24 +24 комфорт 1013.6 1012.9 1
12 19.02 ЮЗ 3 20 км 9/4 1000 м
[Sc diur, vesp As trans]
+20.0 +13.5 66 +22 +22 комфорт 1013.0 1012.2 +19.5 +23.5
15 19.02 ЮЗ 5 20 км 6/4 1000 м
[Sc diur, vesp As trans]
+20.0 +11.6 58 +21 +22 комфорт 1013.8 1013.0
18 19.02 ЮЗ 4 20 км 5/5 1000 м
[Cu med, cong]
+23.0 +11.8 49 +25 +30 комфорт 1015.0 1014.2 +19.5 +23.3
00 20.02 ЮЗ 2 20 км 4/4 1000 м
[Cu med, cong]
+24.8 +10.4 40 +26 +27 жарко 1012.0 1011.2 +19.5 +27.2
03 20.02 ЮЗ 2 20 км 4/4 1200 м
[Cu med, cong]
+20.1 +11.2 57 +22 +22 комфорт 1013.0 1012.2
12 20.02 СЗ 1 20 км ясно +16.7 +9.7 63 +18 +18 1014.3 1013.5 +16.0 +27.2
15 20.02 штиль 0 20 км ясно +14.8 +9.4 70 +15 +17 1016.0 1015.2
18 20.02 СВ 2 20 км 4/4 900 м
[Cu med, cong]
+20.0 +12.0 60 +22 +30 комфорт 1017.2 1016.3 +13.0 +20.5
21 20.02 СВ 3 20 км 1/1 1200 м
[Cu med, cong]
+21.2 +11.1 52 +23 +32 комфорт 1016.0 1015.2
00 21.02 СВ 2 20 км ясно +20.9 +9.3 47 +23 +24 комфорт 1015.9 1015.1 +13.0 +23.5
03 21.02 С 1 20 км 3/3 1200 м
[Cu med, cong]
+17.1 +8.9 58 +18 +18 1017.0 1016.2
12 21.02 штиль 0 20 км 4/4 600 м
[Cu hum]
+13.0 +6.3 64 +13 +13 1018.3 1017.5 +12.0 +23.5
15 21.02 штиль 0 20 км 8/6 1000 м
[Sc diur, vesp As trans]
+15.7 +6.5 54 +16 +16 1019.6 1018.8
18 21.02 Ю 1 20 км 3/3 1020 м
[Sc]
+20.4 +3.0 32 +22 +32 комфорт 1020.5 1019.7 +12.0 +21.0
21 21.02 СВ 3 20 км ясно +21.6 +6.5 38 +22 +32 комфорт 1014.0 1013.2

 

Местоположение метеостанции Loreto (Мексика): широта 26.02 долгота -111.30 высота над уровнем моря 7 м.

В архиве по умолчанию представлена погода в Loreto за последнюю неделю. Архивные данные за месяц целиком и за предыдущие месяцы, начиная с января 2011 года, Вы можете получить, выбрав интересующий диапазон дат из раскрывающегося списка и нажав кнопку "Ввод!".

Внимание! Время в таблицах - всемирное. Для получения местного времени необходимо прибавить поправку, которая в Loreto равна -6 ч.

Смотрите также архив погоды в соседних городах и на ближайших метеорологических станциях:

Погода в Ciudad Constitucion (Мексика) (126 км)
Погода в Santa Rosalia (Мексика) (169 км)
Погода в Ciudad Obregon (Мексика) (211 км)
Погода в Guaymas (Мексика) (215 км)
Погода в Empalme (Мексика) (223 км)
Погода в La Paz (Мексика) (229 км)
Погода в Choix (Мексика) (319 км)
Погода в Hermosillo la Magna (Мексика) (342 км)
Погода в Hermosillo (Мексика) (342 км)
Погода в Culiacan (Мексика) (415 км)

Пояснения к столбцам:

Ветер - указаны скорость ветра в м/с - средняя за 10 мин, порывы в срок и между сроками (в фигурных скобках) и направление, откуда дует ветер: С - северный, СВ - северо-восточный, В - восточный, ЮВ - юго-восточный, Ю - южный, ЮЗ - юго-западный, З - западный, СЗ - северо-западный.
Видимость - горизонтальная дальность видимости в метрах или километрах. При видимости от 1 до 10 км при отсутствии осадков обычно наблюдается дымка, при ухудшении видимости до 1 км и менее - туман. В сухую погоду видимость может ухудшаться дымом, пылью или мглою.
Явления - указаны атмосферные явления, наблюдавшиеся в срок или в последний час перед сроком; фигурными скобками обозначены явления, наблюдавшиеся между сроками (за 1-3 часа до срока); квадратными скобками обозначены град или гололедные отложения с указанием их диаметра в мм.
Облачность - указаны через наклонную черту общая и нижняя облачность в баллах и высота нижней границы облаков в метрах; квадратными скобками обозначены формы облаков: Ci - перистые, Cs - перисто-слоистые, Cc - перисто-кучевые, Ac - высококучевые, As - высокослоистые, Sc - слоисто-кучевые, Ns - слоисто-дождевые, Cu - кучевые, Cb - кучево-дождевые. Подробнее классификацию облаков см. в Атласе облаков (PDF).
T - Температура воздуха - температура, измеренная на высоте 2 м над землей.
Td - Температура точки росы - температура, при понижении до которой содержащийся в воздухе водяной пар достигнет насыщения.
f - Относительная влажность воздуха - влажноcть воздуха, измеренная на высоте 2 м над землей.
Te - Эффективная температура - температура, которую ощущает одетый по сезону человек в тени. Характеристика душности погоды. При расчете учитывается влияние влажности воздуха и скорости ветра на теплоощущения человека.
Tes - Эффективная температура на солнце - температура, которую ощущает человек, с поправкой на солнечный нагрев. Характеристика знойности погоды. Зависит от высоты солнца над горизонтом, облачности и скорости ветра. Ночью, в пасмурную погоду, а также при ветре 12 м/с и более поправка равна нулю.
P - Атмосферное давление - приведенное к уровню моря атмосферное давление.
Po - Атмосферное давление - измеренное на уровне метеостанции атмосферное давление.
Tmin - Минимальная температура - минимум температуры воздуха на высоте 2 м над землей.
Tmax - Максимальная температура - максимум температуры воздуха на высоте 2 м над землей.
R - Количество осадков - Количество выпавших осадков за период времени, мм. При наведении курсора мыши на число - период времени, за который выпало указанное количество осадков.
R24 - Количество осадков - Количество выпавших осадков за 24 часа, мм.
S - Снежный покров - Высота снежного покрова, см. При наведении курсора мыши на число - состояние снежного покрова и степень покрытия местности в баллах.